Regional Weather Roundup
Issued by NWS

Home | Current Version | Previous Version | Graphics & Text | Print | Product List | Glossary On
Versions: 1 2 3 4 5 6 7 8 9 10 11 12 13 14 15 16 17 18 19 20 21 22 23 24 25 26 27 28 29 30 31 32 33 34 35 36 37 38 39 40 41 42 43 44 45 46 47 48 49 50
000
ASUS43 KMPX 190710
RWRMN
WEATHER ROUNDUP FOR MINNESOTA
NATIONAL WEATHER SERVICE TWIN CITIES/CHANHASSEN MN
100 AM CST SUN FEB 19 2017


NOTE: "FAIR" INDICATES FEW OR NO CLOUDS BELOW 12,000 FEET WITH NO
SIGNIFICANT WEATHER AND/OR OBSTRUCTIONS TO VISIBILITY. N/A MEANS
CURRENT SKY AND/OR WEATHER CONDITIONS ARE NOT AVAILABLE.

MNZ060>063-068>070-190800-
   Twin Cities Metro

CITY           SKY/WX    TMP DP  RH WIND       PRES   REMARKS
TWIN CITIES    CLEAR     37  31  78 E3        29.86S
ST PAUL        CLEAR     32  32 100 CALM      29.87S
CRYSTAL        CLEAR     33  28  81 CALM      29.84S
BLAINE         CLEAR     34  34 100 CALM      29.85F
LAKEVILLE      CLEAR     30  30 100 CALM      29.87R
EDEN PRAIRIE   CLEAR     36  34  92 CALM      29.85R
SOUTH ST PAUL  CLEAR     34  32  94 CALM      29.86S
LAKE ELMO      FAIR      32  32 100 CALM      29.87S
$$
MNZ001>005-007-008-013>017-022>024-027-028-190800-
   Northwest Minnesota

CITY           SKY/WX    TMP DP  RH WIND       PRES   REMARKS
BEMIDJI        CLOUDY    32  31  97 CALM      29.83R
HALLOCK        CLOUDY    34  30  86 E3        29.83F
ROSEAU         CLOUDY    30  25  80 CALM      29.85R
WARROAD        CLOUDY    30  27  86 CALM      29.86R
THIEF RVR FALL CLOUDY    34  32  92 NE3       29.85R
CROOKSTON      CLOUDY    36  34  93 E6        29.83F
FOSSTON        CLOUDY    34  32  93 NE5       29.84R WCI  30
DETROIT LAKES  CLEAR     36  34  93 CALM      29.83R
MOORHEAD       CLEAR     36  34  93 SE7       29.81S
PARK RAPIDS    CLEAR     33  28  81 CALM      29.82S
MAHNOMEN       PTSUNNY   34  32  94 SE6       29.82R WCI  29
$$
MNZ006-009>011-018-025>026-190800-
   North Central Minnesota

CITY           SKY/WX    TMP DP  RH WIND       PRES   REMARKS
BAUDETTE       CLOUDY    29  28  96 NW3       29.84R
FLAG ISLAND    PTCLDY    28  27  93 CALM      29.85R
INTL FALLS     CLEAR     26  23  88 CALM      29.84R
WASKISH        CLOUDY    32  30  93 CALM      29.84S
BIG FORK       CLOUDY    32  28  86 CALM      29.84S
LONGVILLE      CLOUDY    28  27  93 CALM      29.84S
GRAND RAPIDS   CLOUDY    33  30  88 CALM      29.86R
CRANE LAKE     CLEAR     25  23  93 CALM      29.86R
ORR            CLOUDY    30  28  93 CALM      29.83R
COOK           CLOUDY    34  30  86 NW3       29.85R
WALKER         FAIR      32  29  88 CALM      29.83S
$$
MNZ012-019>021-037-190800-
   Northeast Minnesota

CITY           SKY/WX    TMP DP  RH WIND       PRES   REMARKS
DULUTH         CLOUDY    39  32  76 NW9       29.84R
ELY            CLEAR     28  27  93 SW5       29.84R WCI  23
HIBBING        CLOUDY    29  29 100 CALM      29.84R
EVELETH        CLOUDY    30  28  92 CALM      29.86R
DULUTH HARBOR  CLEAR     43  34  70 CALM      29.87R
TWO HARBORS    PTCLDY    43  34  70 CALM      29.82R
GRAND MARAIS     N/A     38  30  73 CALM      29.80R
G MARAIS ARPRT PTCLDY    36  27  69 NW12G21   29.76R
$$
MNZ029>031-032-039>041-046>048-054>057-064-190800-
   West Central Minnesota

CITY           SKY/WX    TMP DP  RH WIND       PRES   REMARKS
FERGUS FALLS   CLEAR     41  36  81 E9        29.85R
WHEATON        CLOUDY    32  30  93 SE8       29.83S WCI  25
MORRIS         CLEAR     36  36 100 SE9       29.82R
ALEXANDRIA     CLEAR     36  34  92 SE5       29.84R
ELBOW LAKE     FAIR      37  34  89 SE9       29.83R
WADENA         CLEAR     30  30 100 CALM      29.84R
GLENWOOD       CLEAR     37  36  93 E3        29.85R
APPLETON       CLEAR     39  36  87 SE5       29.83R
BENSON         CLEAR     37  34  87 S5        29.85R
ORTONVILLE     CLEAR     34  32  93 CALM      29.82R
WILLMAR        FAIR      37  36  93 CALM      29.86R
$$
MNZ033>034-036-042>043-049>051-058-059-190800-
   Central Minnesota

CITY           SKY/WX    TMP DP  RH WIND       PRES   REMARKS
ST CLOUD       CLEAR     32  32 100 CALM      29.84R
SAUK CENTRE    FAIR      30  30 100 CALM      29.85R
PAYNESVILLE    CLEAR     32  32 100 CALM      29.86R
AITKIN         CLOUDY    34  28  80 CALM      29.84S
PINE RIVER     CLEAR     30  30 100 CALM      29.88S
BRAINERD       CLEAR     32  31  96 S3        29.85S
STAPLES          N/A     30  28  93 CALM      29.84R
LONG PRAIRIE   FAIR      32  32 100 CALM      29.85R
LITTLE FALLS   CLEAR     30  28  93 CALM      29.86R FOG
LITCHFIELD     CLEAR     36  34  93 CALM      29.85R FOG
BUFFALO        CLEAR     32  30  94 CALM      29.86S
MAPLE LAKE       N/A     33  33 100 CALM      29.85S FOG
HUTCHINSON     CLOUDY    35  35 100 CALM      29.85S
$$
MNZ037-044-045-052-053-190800-
   East Central Minnesota

CITY           SKY/WX    TMP DP  RH WIND       PRES   REMARKS
PRINCETON      CLEAR     32  30  93 CALM      29.85S FOG
MORA           PTCLDY    32  30  93 CALM      29.87S
CAMBRIDGE      CLEAR     34  27  75 CALM      29.84S
RUSH CITY      CLEAR     32  32 100 CALM      29.86S FOG
MOOSE LAKE     CLOUDY    34  30  86 CALM      29.85R
HINCKLEY       FAIR      34  32  93 CALM      29.86R
CLOQUET        CLOUDY    39  28  65 W5        29.85R
MCGREGOR       CLOUDY    34  32  93 CALM      29.86R
$$
MNZ071>073-080-081-089-090-097-098-190800-
   Southwest Minnesota

CITY           SKY/WX    TMP DP  RH WIND       PRES   REMARKS
MONTEVIDEO     CLEAR     39  37  93 S6        29.85R
GRANITE FALLS  PTCLDY    38  35  91 S5        29.86R
CANBY          CLEAR     32  32  99 CALM      29.83R
MARSHALL       PTCLDY    39  36  89 S5        29.84R
REDWOOD FALLS  PTCLDY    37  33  85 S9        29.84R
OLIVIA         PTCLDY    36  34  93 S5        29.84R
PIPESTONE      PTCLDY    43  36  75 S8        29.82R
WINDOM         PTCLDY    39  37  93 S7        29.84S
WORTHINGTON    PTCLDY    39  37  92 S6        29.85R
JACKSON        PTCLDY    41  36  81 S9        29.85S
TRACY          PTCLDY    44  39  84 S12       29.84R
SLAYTON        CLOUDY    33  32  96 SE5       29.85R WCI  29
$$
MNZ065>067-074>077-082>085-091>093-190800-
   South Central Minnesota

CITY           SKY/WX    TMP DP  RH WIND       PRES   REMARKS
MANKATO          N/A     40  38  93 S5        29.87R
NEW ULM        CLOUDY    36  34  93 S8        29.85S
ST JAMES       CLOUDY    36  36 100 CALM      29.86S
FAIRMONT       PTCLDY    34  33  96 S9        29.86F WCI  27
GLENCOE        PTCLDY    34  34 100 CALM      29.84S
FARIBAULT      PTCLDY    32  30  93 CALM      29.86F
OWATONNA       CLOUDY    34  30  86 CALM      29.86F
WASECA         CLOUDY    34  32  93 SE5       29.88S WCI  30
ALBERT LEA     CLOUDY    32  32 100 CALM      29.87S
$$
MNZ078>079-086>088-094>096-190800-
   Southeast Minnesota

CITY           SKY/WX    TMP DP  RH WIND       PRES   REMARKS
ROCHESTER      CLEAR     36  35  96 S6        29.87S
RED WING       CLEAR     32  30  93 E3        29.87R
STANTON        PTCLDY    33  31  92 CALM      29.85S
DODGE CENTER   PTCLDY    37  37 100 CALM      29.86F
WINONA         PTCLDY    32  32 100 CALM      29.89S
AUSTIN         FOG       30  28  93 CALM      29.87F VSB 1/4
PRESTON        CLEAR     36  35  96 SW6       29.88S FOG
$$
ABBREVIATIONS USED IN REMARKS
   TC - TEMPERATURES IN CELSIUS
  WCI - WIND CHILL INDEX
   HX - HEAT INDEX
  VSB - VISIBILITY
$$



USA.gov is the U.S. government's official web portal to all federal, state and local government web resources and services.